Weather History for KLXV - January, 2013

Change the Weather History Date:

Friday, January 4, 2013

  Actual Average Record
Temperature  
Mean Temperature 17 °F -  
Max Temperature 37 °F 30 °F 44 °F (2012)
Min Temperature -4 °F 4 °F -18 °F (1990)
Degree Days  
Heating Degree Days 48 48  
Month to date heating degree days 238 192  
Since 1 July heating degree days 4772 5093  
Cooling Degree Days 0 0  
Month to date cooling degree days 0 0  
Year to date cooling degree days 0 0  
Moisture  
Dew Point -2 °F    
Average Humidity 47    
Maximum Humidity 72    
Minimum Humidity 22    
Precipitation  
Precipitation 0.00 in 0.02 in 0.15 in (2005)
Month to date precipitation 0.00 0.08  
Year to date precipitation 0.00 0.08  
Sea Level Pressure  
Sea Level Pressure 30.16 in    
Wind  
Wind Speed 5 mph (North)    
Max Wind Speed 21 mph    
Max Gust Speed 26 mph    
Visibility 10 miles    
Events      
T = Trace of Precipitation, MM = Missing Value Source: NWS Daily Summary

Daily Weather History Graph

Daily Weather History Graph

Search for Another Location

Airport or City:

Trip Planner

Search our weather history database for the weather conditions in past years. The results will help you decide how hot, cold, wet, or windy it might be!

Date:

Astronomy

Jan. 04, 2013 Rise Set
Actual Time 7:25 AM MST 4:55 PM MST
Civil Twilight 6:55 AM MST 5:25 PM MST
Nautical Twilight 6:21 AM MST 5:59 PM MST
Astronomical Twilight 5:49 AM MST 6:31 PM MST
Moon No Moon Rise 11:12 AM MST (1/4)
Length of Visible Light 10h 30m
Length of Day
9h 30m
Waning Gibbous, 54% of the Moon is Illuminated
Jan 4
Waning Gibbous
Jan 4
Last Quarter
Jan 11
New
Jan 18
First Quarter
Jan 26
Full

Hourly Weather History & Observations

Time (MST) Temp. Windchill Dew Point Humidity Pressure Visibility Wind Dir Wind Speed Gust Speed Precip Events Conditions
12:53 AM 5.0 °F - -9.0 °F 52% 30.22 in 10.0 mi Calm Calm - N/A   Clear
1:53 AM 1.9 °F -9.2 °F -9.9 °F 58% 30.23 in 10.0 mi NNE 5.8 mph - N/A   Clear
2:53 AM -0.0 °F -7.9 °F -9.9 °F 63% 30.24 in 10.0 mi North 3.5 mph - N/A   Clear
3:53 AM 3.9 °F - -9.0 °F 55% 30.22 in 10.0 mi Calm Calm - N/A   Clear
4:53 AM 5.0 °F -5.6 °F -6.0 °F 61% 30.25 in 10.0 mi NNE 5.8 mph - N/A   Clear
5:53 AM -0.9 °F -11.0 °F -8.0 °F 72% 30.35 in 10.0 mi NNE 4.6 mph - N/A   Clear
6:53 AM 1.9 °F - -7.1 °F 66% 30.32 in 10.0 mi Calm Calm - N/A   Clear
7:53 AM 10.0 °F - -2.9 °F 56% 30.29 in 10.0 mi Calm Calm - N/A   Clear
8:53 AM 10.0 °F - -2.0 °F 58% 30.32 in 10.0 mi Calm Calm - N/A   Clear
9:53 AM 19.9 °F - -0.0 °F 42% 30.23 in 10.0 mi Calm Calm - N/A   Clear
10:53 AM 26.1 °F - -0.0 °F 32% 30.15 in 10.0 mi Calm Calm - N/A   Clear
11:53 AM 32.0 °F - -0.0 °F 26% 30.07 in 10.0 mi Calm Calm - N/A   Clear
12:53 PM 35.1 °F - -0.0 °F 23% 30.02 in 10.0 mi Calm Calm - N/A   Clear
1:53 PM 35.1 °F 27.9 °F 3.0 °F 26% 30.00 in 10.0 mi NNW 9.2 mph - N/A   Clear
2:53 PM 34.0 °F 23.8 °F 5.0 °F 30% 30.02 in 10.0 mi North 16.1 mph - N/A   Clear
3:53 PM 30.9 °F 19.4 °F 5.0 °F 33% 30.01 in 10.0 mi North 17.3 mph 26.5 mph N/A   Clear
4:53 PM 26.1 °F 16.8 °F 5.0 °F 41% 30.06 in 10.0 mi NNW 9.2 mph - N/A   Clear
5:53 PM 19.9 °F 11.1 °F 3.9 °F 50% 30.15 in 10.0 mi North 6.9 mph - N/A   Clear
6:53 PM 17.1 °F 10.0 °F 3.0 °F 54% 30.16 in 10.0 mi North 4.6 mph - N/A   Clear
7:53 PM 14.0 °F 3.9 °F 1.9 °F 59% 30.13 in 10.0 mi North 6.9 mph - N/A   Clear
8:53 PM 10.9 °F 1.4 °F -0.9 °F 59% 30.15 in 10.0 mi North 5.8 mph - N/A   Clear
9:53 PM 9.0 °F -0.9 °F -0.9 °F 64% 30.11 in 10.0 mi North 5.8 mph - N/A   Clear
10:53 PM 8.1 °F -2.0 °F -2.0 °F 64% 30.09 in 10.0 mi North 5.8 mph - N/A   Clear
11:53 PM 7.0 °F -3.3 °F -2.9 °F 64% 30.04 in 10.0 mi NNE 5.8 mph - N/A   Clear